Regional Weather Roundup
Issued by NWS

Home | Current Version | Previous Version | Graphics & Text | Print | Product List | Glossary On
Versions: 1 2 3 4 5 6 7 8 9 10 11 12 13 14 15 16 17 18 19 20 21 22 23 24 25 26 27 28 29 30 31 32 33 34 35 36 37 38 39 40 41 42 43 44 45 46 47 48 49 50
000
ASUS45 KCYS 070210
RWRWY

WYOMING REGIONAL WEATHER ROUNDUP
NATIONAL WEATHER SERVICE CHEYENNE WY
700 PM MST FRI MAR 06 2015

NOTE:  "FAIR" INDICATES FEW OR NO CLOUDS BELOW 12,000 FEET
WITH NO SIGNIFICANT WEATHER AND/OR OBSTRUCTIONS TO VISIBILITY.

WYZ001-070300-
YELLOWSTONE NATIONAL PARK

CITY           SKY/WX    TMP DP  RH WIND       PRES   REMARKS
LK YELLOWSTONE   N/A     25  14  63 CALM      30.38R
W YELLOWSTONE  NOT AVBL

$$
WYZ002>013-054>058-071-098>099-070300-
NORTHERN WYOMING

CITY           SKY/WX    TMP DP  RH WIND       PRES   REMARKS
JACKSON        CLEAR     36  16  44 CALM      30.35R
CODY           FAIR      43  18  36 W6        30.23R
GREYBULL       FAIR      42  19  39 VRB3      30.22R
WORLAND        FAIR      39  25  57 SE10      30.22R WCI  32
SHERIDAN       FAIR      40  24  53 W13       30.17R WCI  32
BUFFALO        FAIR      40  21  46 CALM      30.19R
GILLETTE       FAIR      42  24  49 W12       30.15R
HULETT         CLOUDY    43  23  45 SW8       30.13R
NEWCASTLE      FAIR      32  18  55 W5        30.16R WCI  27

$$
WYZ014>020-022>026-101>103-070300-
CENTRAL WYOMING

CITY           SKY/WX    TMP DP  RH WIND       PRES   REMARKS
BIG PINEY      FAIR      32  17  54 N12       30.35R WCI  23
PINEDALE       FAIR      28  19  69 NW15      30.35R WCI  17
DUBOIS         FAIR      34  16  47 W20G25    30.31R WCI  22
LANDER         FAIR      35  25  66 N3        30.25R
RIVERTON       FAIR      30  19  63 CALM      30.27R
CASPER         FAIR      36  25  64 SW13      30.25R WCI  27
DOUGLAS        FAIR      37  24  59 NW9       30.22R WCI  30

$$
WYZ021-027>030-104>119-070300-
SOUTHERN WYOMING

CITY           SKY/WX    TMP DP  RH WIND       PRES   REMARKS
EVANSTON       FAIR      36  20  52 W8        30.39R WCI  30
KEMMERER       FAIR      34  19  55 NW15      30.37S WCI  24
FORT BRIDGER   FAIR      38  24  57 W9        30.40R WCI  31
ROCK SPRINGS   FAIR      36  22  56 SW13      30.32R WCI  27
DIXON          FAIR      32  23  69 E3        30.38S
RAWLINS        FAIR      35  20  54 W13       30.31R WCI  26
SARATOGA       FAIR      30  19  64 SE7       30.34R WCI  23
LARAMIE        FAIR      28  19  69 CALM      30.28R
CHEYENNE       FAIR      39  19  44 NW9       30.25R WCI  33
TORRINGTON     FAIR      43  21  41 W13       30.20R
PINE BLUFFS    FAIR      36  19  51 SW7       30.24R WCI  30

$$


USA.gov is the U.S. government's official web portal to all federal, state and local government web resources and services.